User: anonymous   Login
Location: Casteau
(50.5142°N, 4.0161°E)
Time: 08:53:56
(UTC+00:00)
Language:

deb Explorer IX - Orbit

View from above orbital plane
View from above orbital plane
View from above satellite
View from above satellite

Ground track
Ground track

The orbit data is extracted from the following two-line orbital elements,

1 00085U 61004C   21204.85680488  .00006593  00000-0  13939-2 0  9990
2 00085  38.7706 131.1167 0384717 296.2724  59.8976 14.21918971988224
Epoch (UTC): 23 July 2021 20:33:47
Eccentricity: 0.0384717
inclination: 38.7706°
perigee height: 542 km
apogee height: 1096 km
right ascension of ascending node: 131.1167°
argument of perigee: 296.2724°
revolutions per day: 14.21918971
mean anomaly at epoch: 59.8976°
orbit number at epoch: 98822

The dashed part of the orbit path shows where the satellite is in the earth's shadow,  

DLR